FALCON 9 DEB (47682 NORAD) Tracking and Keplerian Element Data

This shows tracking and keplerian element data for the satellite.

Feedback or suggestion? Click here.




ElementValue
Catalog47682
NameFALCON 9 DEB
Epoch Orbit444
Epoch Day72.7520996
Epoch Year2021
RAAN328.6259
Inclination53.0332
Eccentricity0.0008693
Argument of Perigee261.6675
Mean Anonmoly98.339
Mean Motion16.50328436
Decay Rate0.13586245
L11 47682U 21012BQ 21072.75209960 .13586245 12628-4 13727-3 0 9993
L22 47682 53.0332 328.6259 0008693 261.6675 98.3390 16.50328436 4441

Live tracking and technical data element details for FALCON 9 DEB (NORAD 47682). FALCON 9 DEB can be tracked NOW for your location showing map with azimuth and elevation plus other details from your city location.

Track the satellite on the map from your city or location and see movement details for azimuth, elevation, latitude, longitude, range, height, and movement on the map or in text.







IsCatalogInMostPopularTable: catalog: 47682, numindb: 14
Update: records affected: 1



GetName: 47682 FALCON 9 DEB

Hit Count: updated at: Tue, 13 Apr 2021 04:32:01 GMT